EN

Hourly Weather Dziurdzioly

Today, 30 October, Friday

Time Temperature Precipitation Wind Pressure Humidity
00:00 +6°C° 0 mm 4 mps 748 mmHg 84%
01:00 +6°C° 0 mm 4 mps 749 mmHg 85%
02:00 +5°C° 0 mm 4 mps 749 mmHg 86%
03:00 +5°C° 0 mm 4 mps 749 mmHg 88%
04:00 +5°C° 0 mm 4 mps 749 mmHg 90%
05:00 +5°C° 0 mm 4 mps 749 mmHg 90%
06:00 +5°C° 0 mm 4 mps 749 mmHg 91%
07:00 +4°C° 0 mm 4 mps 749 mmHg 90%
08:00 +6°C° 0 mm 4 mps 749 mmHg 85%
09:00 +7°C° 0 mm 4 mps 749 mmHg 79%
10:00 +8°C° 0 mm 4 mps 750 mmHg 73%
11:00 +10°C° 0 mm 4 mps 749 mmHg 69%
12:00 +10°C° 0 mm 3 mps 749 mmHg 65%
13:00 +11°C° 0 mm 3 mps 749 mmHg 62%
14:00 +10°C° 0 mm 3 mps 749 mmHg 64%
15:00 +10°C° 0 mm 2 mps 748 mmHg 66%
16:00 +9°C° 0 mm 2 mps 748 mmHg 69%
17:00 +9°C° 0.1 mm 2 mps 748 mmHg 73%
18:00 +10°C° 0.1 mm 1 mps 748 mmHg 77%
19:00 +10°C° 0.1 mm 1 mps 748 mmHg 81%
20:00 +9°C° 0.6 mm 1 mps 748 mmHg 84%
21:00 +9°C° 0.6 mm 1 mps 748 mmHg 88%
22:00 +9°C° 0.6 mm 1 mps 748 mmHg 91%
23:00 +9°C° 0.2 mm 1 mps 748 mmHg 91%

Tomorrow, 31 October, Saturday

Time Temperature Precipitation Wind Pressure Humidity
00:00 +9°C° 0.2 mm 1 mps 749 mmHg 92%
01:00 +9°C° 0.2 mm 1 mps 749 mmHg 92%
02:00 +9°C° 0 mm 1 mps 749 mmHg 91%
03:00 +8°C° 0 mm 1 mps 750 mmHg 91%
04:00 +8°C° 0 mm 1 mps 750 mmHg 91%
05:00 +7°C° 0 mm 1 mps 751 mmHg 91%
06:00 +7°C° 0 mm 1 mps 751 mmHg 90%
07:00 +7°C° 0 mm 1 mps 752 mmHg 90%
08:00 +8°C° 0 mm 1 mps 752 mmHg 84%
09:00 +9°C° 0 mm 1 mps 752 mmHg 78%
10:00 +10°C° 0 mm 1 mps 753 mmHg 72%
11:00 +11°C° 0 mm 1 mps 753 mmHg 68%
12:00 +12°C° 0 mm 1 mps 753 mmHg 64%
13:00 +12°C° 0 mm 1 mps 753 mmHg 59%
14:00 +11°C° 0 mm 1 mps 753 mmHg 63%
15:00 +11°C° 0 mm 1 mps 753 mmHg 67%
16:00 +10°C° 0 mm 1 mps 753 mmHg 70%
17:00 +9°C° 0 mm 1 mps 753 mmHg 73%
18:00 +9°C° 0 mm 1 mps 753 mmHg 76%
19:00 +8°C° 0 mm 1 mps 753 mmHg 80%
20:00 +8°C° 0 mm 1 mps 753 mmHg 82%
21:00 +8°C° 0 mm 1 mps 753 mmHg 84%
22:00 +7°C° 0 mm 1 mps 753 mmHg 86%
23:00 +7°C° 0 mm 1 mps 753 mmHg 88%

Day after tomorrow, 1 November, Sunday

Time Temperature Precipitation Wind Pressure Humidity
00:00 +6°C° 0 mm 2 mps 753 mmHg 89%
01:00 +5°C° 0 mm 2 mps 753 mmHg 91%
02:00 +5°C° 0 mm 2 mps 753 mmHg 91%
03:00 +5°C° 0 mm 2 mps 752 mmHg 91%
04:00 +5°C° 0 mm 2 mps 752 mmHg 91%
05:00 +5°C° 0 mm 2 mps 752 mmHg 91%
06:00 +5°C° 0 mm 2 mps 752 mmHg 91%
07:00 +4°C° 0 mm 2 mps 752 mmHg 90%
08:00 +5°C° 0 mm 3 mps 752 mmHg 84%
09:00 +7°C° 0 mm 3 mps 752 mmHg 77%
10:00 +8°C° 0 mm 4 mps 751 mmHg 71%
11:00 +10°C° 0 mm 4 mps 751 mmHg 67%
12:00 +11°C° 0 mm 4 mps 750 mmHg 64%
13:00 +11°C° 0 mm 4 mps 749 mmHg 60%
14:00 +11°C° 0 mm 4 mps 749 mmHg 64%
15:00 +10°C° 0 mm 4 mps 749 mmHg 69%
16:00 +9°C° 0 mm 3 mps 748 mmHg 73%
17:00 +8°C° 0 mm 4 mps 748 mmHg 74%
18:00 +8°C° 0 mm 4 mps 748 mmHg 75%
19:00 +7°C° 0 mm 4 mps 748 mmHg 77%
20:00 +8°C° 0 mm 4 mps 747 mmHg 78%
21:00 +8°C° 0 mm 4 mps 747 mmHg 80%
22:00 +8°C° 0 mm 4 mps 747 mmHg 81%
23:00 +8°C° 0.1 mm 4 mps 747 mmHg 84%

2 November, Monday

Time Temperature Precipitation Wind Pressure Humidity
00:00 +9°C° 0.1 mm 3 mps 746 mmHg 88%
01:00 +9°C° 0.1 mm 3 mps 746 mmHg 91%
02:00 +10°C° 0.3 mm 3 mps 746 mmHg 93%
03:00 +10°C° 0.3 mm 3 mps 746 mmHg 94%
04:00 +10°C° 0.3 mm 3 mps 746 mmHg 95%
05:00 +10°C° 0.1 mm 3 mps 746 mmHg 95%
06:00 +10°C° 0.1 mm 3 mps 746 mmHg 96%
07:00 +10°C° 0.1 mm 3 mps 746 mmHg 96%
08:00 +11°C° 0 mm 3 mps 746 mmHg 94%
09:00 +12°C° 0 mm 3 mps 747 mmHg 92%
10:00 +12°C° 0 mm 3 mps 747 mmHg 90%
11:00 +13°C° 0 mm 3 mps 747 mmHg 86%
12:00 +14°C° 0 mm 3 mps 747 mmHg 83%
13:00 +16°C° 0 mm 3 mps 747 mmHg 79%
14:00 +14°C° 0 mm 3 mps 747 mmHg 82%
15:00 +14°C° 0 mm 3 mps 747 mmHg 86%
16:00 +13°C° 0 mm 3 mps 747 mmHg 89%
17:00 +13°C° 0 mm 3 mps 747 mmHg 90%
18:00 +13°C° 0 mm 3 mps 747 mmHg 92%
19:00 +13°C° 0 mm 3 mps 747 mmHg 93%
20:00 +13°C° 0.1 mm 3 mps 747 mmHg 93%
21:00 +13°C° 0.1 mm 4 mps 747 mmHg 93%
22:00 +13°C° 0.1 mm 4 mps 747 mmHg 92%
23:00 +13°C° 0 mm 4 mps 747 mmHg 92%

3 November, Tuesday

Time Temperature Precipitation Wind Pressure Humidity
00:00 +13°C° 0 mm 4 mps 747 mmHg 91%
01:00 +13°C° 0 mm 4 mps 747 mmHg 91%
02:00 +13°C° 0 mm 4 mps 747 mmHg 91%
03:00 +14°C° 0 mm 4 mps 747 mmHg 91%
04:00 +14°C° 0 mm 4 mps 747 mmHg 91%
05:00 +13°C° 0 mm 4 mps 747 mmHg 92%
06:00 +13°C° 0 mm 3 mps 747 mmHg 92%
07:00 +13°C° 0 mm 3 mps 748 mmHg 92%
08:00 +14°C° 0 mm 4 mps 748 mmHg 90%
09:00 +14°C° 0 mm 4 mps 749 mmHg 89%
10:00 +15°C° 0 mm 5 mps 749 mmHg 87%
11:00 +15°C° 0 mm 5 mps 750 mmHg 80%
12:00 +15°C° 0 mm 5 mps 750 mmHg 72%
13:00 +14°C° 0 mm 5 mps 751 mmHg 65%
14:00 +14°C° 0 mm 4 mps 751 mmHg 66%
15:00 +13°C° 0 mm 4 mps 751 mmHg 67%
16:00 +12°C° 0 mm 3 mps 752 mmHg 68%
17:00 +12°C° 0 mm 3 mps 752 mmHg 68%
18:00 +12°C° 0 mm 2 mps 753 mmHg 68%
19:00 +12°C° 0 mm 2 mps 753 mmHg 68%
20:00 +10°C° 0 mm 2 mps 754 mmHg 70%
21:00 +10°C° 0 mm 2 mps 754 mmHg 71%
22:00 +10°C° 0 mm 2 mps 754 mmHg 72%
23:00 +10°C° 0 mm 2 mps 754 mmHg 72%

4 November, Wednesday

Time Temperature Precipitation Wind Pressure Humidity
00:00 +9°C° 0 mm 2 mps 754 mmHg 72%
01:00 +9°C° 0 mm 2 mps 754 mmHg 72%
02:00 +10°C° 0 mm 1 mps 754 mmHg 73%
03:00 +10°C° 0 mm 1 mps 754 mmHg 74%
04:00 +10°C° 0 mm 1 mps 754 mmHg 74%
05:00 +10°C° 0.1 mm 1 mps 754 mmHg 75%
06:00 +9°C° 0.1 mm 1 mps 755 mmHg 77%
07:00 +8°C° 0.1 mm 0 mps 755 mmHg 78%
08:00 +9°C° 0.5 mm 1 mps 755 mmHg 80%
09:00 +9°C° 0.5 mm 1 mps 755 mmHg 83%
10:00 +9°C° 0.5 mm 1 mps 755 mmHg 85%
11:00 +8°C° 0.8 mm 2 mps 756 mmHg 85%
12:00 +7°C° 0.8 mm 2 mps 756 mmHg 85%
13:00 +7°C° 0.8 mm 3 mps 756 mmHg 85%
14:00 +7°C° 0.3 mm 3 mps 756 mmHg 85%
15:00 +7°C° 0.3 mm 3 mps 756 mmHg 86%
16:00 +7°C° 0.3 mm 3 mps 756 mmHg 86%
17:00 +7°C° 0.1 mm 3 mps 757 mmHg 86%
18:00 +7°C° 0.1 mm 3 mps 757 mmHg 87%
19:00 +7°C° 0.1 mm 2 mps 758 mmHg 88%
20:00 +7°C° 0 mm 2 mps 758 mmHg 88%
21:00 +8°C° 0 mm 1 mps 758 mmHg 89%
22:00 +8°C° 0 mm 1 mps 758 mmHg 90%
23:00 +7°C° 0 mm 1 mps 759 mmHg 91%
Show more